QPF
0.30 0.31 0.25 0.19 0.14 0.10 0.07 0.03 0.01 0.00 0.00 0.00 0.00 0.00 0.00 0.00 0.00 0.00 0.00 0.00 0.00 0.00 0.00 0.00 0.00 0.00 0.00 0.00 0.00 0.00 0.00 0.00 0.00 0.00 0.00 0.00 0.00 0.00 0.00 0.01 0.01 0.02 0.02
0.20 0.27 0.27 0.21 0.10 0.07 0.03 0.01 0.00 0.00 0.00 0.00 0.00 0.00 0.00 0.00 0.00 0.00 0.00 0.00 0.00 0.00 0.00 0.00 0.00 0.00 0.00 0.00 0.00 0.00 0.00 0.00 0.00 0.00 0.00 0.00 0.00 0.00 0.00 0.01 0.02 0.03 0.03
0.13 0.23 0.30 0.17 0.06 0.03 0.01 0.01 0.00 0.00 0.00 0.00 0.00 0.00 0.00 0.00 0.00 0.00 0.00 0.00 0.00 0.00 0.00 0.00 0.00 0.00 0.00 0.00 0.00 0.00 0.00 0.00 0.00 0.00 0.00 0.00 0.00 0.00 0.00 0.01 0.01 0.02 0.03
0.06 0.09 0.18 0.07 0.02 0.01 0.00 0.01 0.01 0.01 0.01 0.00 0.00 0.00 0.00 0.00 0.00 0.00 0.00 0.00 0.00 0.00 0.00 0.00 0.00 0.00 0.00 0.00 0.00 0.00 0.00 0.00 0.00 0.00 0.00 0.00 0.00 0.00 0.00 0.00 0.00 0.01 0.01
0.03 0.03 0.05 0.02 0.01 0.01 0.01 0.01 0.01 0.01 0.01 0.00 0.00 0.00 0.00 0.00 0.00 0.00 0.00 0.00 0.00 0.00 0.00 0.00 0.00 0.00 0.00 0.00 0.00 0.00 0.00 0.00 0.00 0.00 0.00 0.00 0.00 0.00 0.00 0.00 0.00 0.00 0.00
0.00 0.00 0.01 0.01 0.01 0.01 0.01 0.01 0.00 0.00 0.00 0.00 0.00 0.00 0.00 0.00 0.00 0.00 0.00 0.00 0.00 0.00 0.00 0.00 0.00 0.00 0.00 0.00 0.00 0.00 0.00 0.00 0.00 0.00 0.00 0.00 0.00 0.00 0.00 0.00 0.00 0.00 0.00
0.00 0.00 0.00 0.00 0.00 0.01 0.00 0.00 0.00 0.00 0.00 0.00 0.00 0.00 0.00 0.00 0.00 0.00 0.00 0.00 0.00 0.00 0.00 0.00 0.00 0.00 0.00 0.00 0.00 0.00 0.00 0.00 0.00 0.00 0.00 0.00 0.00 0.00 0.00 0.00 0.00 0.00 0.00
0.00 0.00 0.00 0.00 0.00 0.00 0.00 0.00 0.00 0.00 0.00 0.00 0.00 0.00 0.00 0.00 0.00 0.00 0.00 0.00 0.00 0.00 0.00 0.00 0.00 0.00 0.00 0.00 0.00 0.00 0.00 0.00 0.00 0.00 0.00 0.00 0.00 0.00 0.00 0.00 0.00 0.00 0.00
0.00 0.00 0.00 0.00 0.00 0.00 0.00 0.00 0.00 0.00 0.00 0.00 0.00 0.00 0.00 0.00 0.00 0.00 0.00 0.00 0.00 0.00 0.00 0.00 0.00 0.00 0.00 0.00 0.00 0.00 0.00 0.00 0.00 0.00 0.00 0.00 0.00 0.00 0.00 0.00 0.00 0.00 0.00
0.00 0.00 0.00 0.00 0.00 0.00 0.00 0.00 0.00 0.00 0.00 0.00 0.00 0.00 0.00 0.00 0.00 0.00 0.00 0.00 0.00 0.00 0.00 0.00 0.00 0.00 0.00 0.00 0.00 0.00 0.00 0.00 0.00 0.00 0.00 0.00 0.00 0.00 0.00 0.00 0.00 0.00 0.00
0.00 0.00 0.00 0.00 0.00 0.00 0.00 0.00 0.00 0.00 0.00 0.00 0.00 0.00 0.00 0.00 0.00 0.00 0.00 0.00 0.00 0.00 0.00 0.00 0.00 0.00 0.00 0.00 0.00 0.00 0.00 0.00 0.00 0.00 0.00 0.00 0.00 0.00 0.00 0.00 0.00 0.00 0.00
0.00 0.00 0.00 0.00 0.00 0.00 0.00 0.00 0.00 0.00 0.00 0.00 0.00 0.00 0.00 0.00 0.00 0.00 0.00 0.00 0.00 0.00 0.00 0.00 0.00 0.00 0.00 0.00 0.00 0.00 0.00 0.00 0.00 0.00 0.00 0.00 0.00 0.00 0.00 0.00 0.00 0.00 0.00
0.00 0.00 0.00 0.00 0.00 0.00 0.00 0.00 0.00 0.00 0.00 0.00 0.00 0.00 0.00 0.00 0.00 0.00 0.00 0.00 0.00 0.00 0.00 0.00 0.00 0.00 0.00 0.00 0.00 0.00 0.00 0.00 0.00 0.00 0.00 0.00 0.00 0.00 0.00 0.00 0.00 0.00 0.00
0.00 0.00 0.00 0.00 0.00 0.00 0.00 0.00 0.00 0.00 0.00 0.00 0.00 0.00 0.00 0.00 0.00 0.00 0.00 0.00 0.00 0.00 0.00 0.00 0.00 0.00 0.00 0.00 0.00 0.00 0.00 0.00 0.00 0.00 0.00 0.00 0.00 0.00 0.00 0.00 0.00 0.00 0.00
0.00 0.00 0.00 0.00 0.00 0.00 0.00 0.00 0.00 0.00 0.00 0.00 0.00 0.00 0.00 0.00 0.00 0.00 0.00 0.00 0.00 0.00 0.00 0.00 0.00 0.00 0.00 0.00 0.00 0.00 0.00 0.00 0.00 0.00 0.00 0.00 0.00 0.00 0.00 0.00 0.00 0.00 0.00
0.00 0.00 0.00 0.00 0.00 0.00 0.00 0.00 0.00 0.00 0.00 0.00 0.00 0.00 0.00 0.00 0.00 0.00 0.00 0.00 0.00 0.00 0.00 0.00 0.00 0.00 0.00 0.00 0.00 0.00 0.00 0.00 0.00 0.00 0.00 0.00 0.00 0.00 0.00 0.00 0.00 0.00 0.00
0.00 0.00 0.00 0.00 0.00 0.00 0.00 0.00 0.00 0.00 0.00 0.00 0.00 0.00 0.00 0.00 0.00 0.00 0.00 0.00 0.00 0.00 0.00 0.00 0.00 0.00 0.00 0.00 0.00 0.00 0.00 0.00 0.00 0.00 0.00 0.00 0.00 0.00 0.00 0.00 0.00 0.00 0.00
0.00 0.00 0.00 0.00 0.00 0.00 0.00 0.00 0.00 0.00 0.00 0.00 0.00 0.00 0.00 0.00 0.00 0.00 0.00 0.00 0.00 0.00 0.00 0.00 0.00 0.00 0.00 0.00 0.00 0.00 0.00 0.00 0.00 0.00 0.00 0.00 0.00 0.00 0.00 0.00 0.00 0.00 0.00
0.01 0.01 0.01 0.01 0.02 0.02 0.02 0.01 0.01 0.01 0.00 0.00 0.00 0.00 0.00 0.00 0.00 0.00 0.00 0.00 0.00 0.00 0.00 0.00 0.00 0.00 0.00 0.00 0.00 0.00 0.00 0.00 0.00 0.00 0.00 0.00 0.00 0.00 0.00 0.00 0.00 0.00 0.00
0.02 0.01 0.01 0.02 0.01 0.01 0.01 0.02 0.02 0.01 0.01 0.01 0.01 0.02 0.02 0.02 0.01 0.01 0.01 0.00 0.00 0.00 0.00 0.00 0.00 0.00 0.00 0.00 0.00 0.00 0.00 0.00 0.00 0.00 0.00 0.00 0.00 0.00 0.00 0.00 0.00 0.00 0.00
0.02 0.02 0.01 0.02 0.02 0.01 0.01 0.01 0.01 0.02 0.01 0.02 0.03 0.03 0.03 0.03 0.03 0.02 0.01 0.01 0.01 0.00 0.00 0.00 0.00 0.00 0.00 0.00 0.00 0.00 0.00 0.00 0.00 0.00 0.00 0.00 0.00 0.00 0.00 0.00 0.00 0.00 0.00
0.02 0.02 0.03 0.04 0.04 0.03 0.03 0.03 0.03 0.04 0.04 0.05 0.05 0.05 0.04 0.04 0.03 0.02 0.01 0.01 0.01 0.01 0.01 0.01 0.00 0.00 0.00 0.00 0.00 0.00 0.00 0.00 0.00 0.00 0.00 0.00 0.00 0.00 0.00 0.00 0.00 0.00 0.00
0.01 0.01 0.01 0.02 0.02 0.03 0.04 0.04 0.04 0.05 0.06 0.07 0.07 0.07 0.05 0.04 0.03 0.02 0.02 0.02 0.01 0.01 0.01 0.01 0.00 0.00 0.01 0.01 0.00 0.00 0.01 0.01 0.01 0.00 0.00 0.00 0.00 0.00 0.00 0.00 0.00 0.00 0.00
0.00 0.01 0.01 0.01 0.01 0.01 0.02 0.03 0.04 0.05 0.05 0.06 0.06 0.05 0.04 0.04 0.05 0.04 0.03 0.02 0.02 0.01 0.01 0.01 0.02 0.01 0.01 0.01 0.01 0.01 0.01 0.01 0.01 0.00 0.00 0.00 0.00 0.00 0.00 0.00 0.00 0.00 0.00
0.00 0.00 0.01 0.01 0.01 0.01 0.01 0.01 0.01 0.01 0.02 0.03 0.03 0.03 0.03 0.03 0.04 0.03 0.03 0.03 0.02 0.03 0.04 0.04 0.04 0.04 0.03 0.02 0.02 0.01 0.01 0.01 0.01 0.00 0.00 0.00 0.00 0.00 0.00 0.00 0.00 0.00 0.00
0.00 0.00 0.00 0.00 0.00 0.00 0.00 0.00 0.01 0.01 0.01 0.02 0.02 0.02 0.03 0.04 0.04 0.04 0.04 0.04 0.04 0.05 0.06 0.06 0.06 0.05 0.05 0.04 0.03 0.02 0.01 0.01 0.01 0.00 0.00 0.00 0.00 0.00 0.00 0.00 0.00 0.01 0.01
MSLP
1015.42 1015.61 1015.74 1015.79 1015.79 1015.76 1015.75 1015.80 1015.94 1016.18 1016.49 1016.85 1017.20 1017.51 1017.73 1017.85 1017.88 1017.85 1017.79 1017.75 1017.74 1017.79 1017.91 1018.06 1018.24 1018.41 1018.54 1018.63 1018.67 1018.67 1018.63 1018.57 1018.48 1018.37 1018.22 1018.02 1017.77 1017.47 1017.12 1016.75 1016.39 1016.08 1015.85
1015.56 1015.74 1015.85 1015.86 1015.80 1015.72 1015.67 1015.71 1015.87 1016.16 1016.54 1016.97 1017.38 1017.72 1017.95 1018.05 1018.03 1017.93 1017.81 1017.72 1017.69 1017.76 1017.90 1018.11 1018.35 1018.58 1018.76 1018.88 1018.95 1018.96 1018.94 1018.90 1018.85 1018.78 1018.69 1018.54 1018.34 1018.05 1017.70 1017.28 1016.85 1016.44 1016.08
1015.42 1015.60 1015.70 1015.70 1015.63 1015.53 1015.47 1015.52 1015.71 1016.05 1016.50 1017.00 1017.48 1017.87 1018.11 1018.20 1018.15 1018.01 1017.85 1017.72 1017.67 1017.73 1017.90 1018.15 1018.43 1018.69 1018.91 1019.05 1019.14 1019.16 1019.16 1019.15 1019.15 1019.15 1019.13 1019.07 1018.94 1018.71 1018.39 1017.98 1017.51 1017.02 1016.57
1014.99 1015.19 1015.31 1015.33 1015.27 1015.18 1015.14 1015.21 1015.44 1015.83 1016.34 1016.91 1017.45 1017.88 1018.16 1018.27 1018.22 1018.07 1017.89 1017.74 1017.69 1017.75 1017.93 1018.19 1018.49 1018.77 1019.00 1019.16 1019.25 1019.28 1019.30 1019.32 1019.36 1019.43 1019.49 1019.52 1019.48 1019.34 1019.07 1018.70 1018.24 1017.73 1017.22
1014.36 1014.59 1014.75 1014.81 1014.78 1014.73 1014.71 1014.81 1015.07 1015.49 1016.04 1016.65 1017.24 1017.73 1018.06 1018.21 1018.20 1018.07 1017.91 1017.77 1017.73 1017.80 1017.98 1018.24 1018.54 1018.82 1019.05 1019.20 1019.28 1019.32 1019.34 1019.38 1019.46 1019.57 1019.70 1019.81 1019.86 1019.81 1019.63 1019.33 1018.91 1018.42 1017.89
1013.62 1013.89 1014.10 1014.22 1014.25 1014.24 1014.26 1014.37 1014.64 1015.06 1015.62 1016.26 1016.88 1017.41 1017.80 1018.00 1018.05 1017.98 1017.87 1017.77 1017.75 1017.84 1018.02 1018.28 1018.57 1018.84 1019.04 1019.18 1019.24 1019.26 1019.28 1019.32 1019.41 1019.56 1019.73 1019.90 1020.02 1020.06 1019.97 1019.75 1019.40 1018.96 1018.46
1012.86 1013.18 1013.47 1013.66 1013.76 1013.80 1013.84 1013.95 1014.20 1014.61 1015.15 1015.78 1016.40 1016.96 1017.39 1017.66 1017.78 1017.78 1017.74 1017.70 1017.72 1017.82 1018.01 1018.27 1018.53 1018.77 1018.96 1019.06 1019.10 1019.10 1019.10 1019.13 1019.22 1019.37 1019.56 1019.77 1019.94 1020.04 1020.02 1019.88 1019.62 1019.25 1018.81
1012.15 1012.54 1012.91 1013.19 1013.36 1013.45 1013.51 1013.62 1013.85 1014.21 1014.70 1015.29 1015.89 1016.45 1016.91 1017.23 1017.41 1017.49 1017.51 1017.53 1017.59 1017.71 1017.90 1018.14 1018.39 1018.60 1018.75 1018.84 1018.86 1018.84 1018.82 1018.83 1018.90 1019.04 1019.22 1019.43 1019.62 1019.76 1019.80 1019.74 1019.56 1019.28 1018.92
1011.51 1011.99 1012.45 1012.82 1013.07 1013.21 1013.30 1013.41 1013.60 1013.91 1014.34 1014.86 1015.42 1015.95 1016.41 1016.76 1016.98 1017.11 1017.19 1017.25 1017.34 1017.48 1017.66 1017.88 1018.10 1018.29 1018.42 1018.49 1018.50 1018.47 1018.44 1018.44 1018.49 1018.61 1018.77 1018.96 1019.14 1019.29 1019.37 1019.36 1019.25 1019.06 1018.79
1010.95 1011.52 1012.07 1012.53 1012.86 1013.06 1013.18 1013.30 1013.46 1013.72 1014.09 1014.54 1015.04 1015.53 1015.96 1016.30 1016.54 1016.70 1016.80 1016.89 1016.99 1017.12 1017.29 1017.49 1017.68 1017.85 1017.97 1018.03 1018.05 1018.03 1018.01 1018.00 1018.04 1018.13 1018.27 1018.42 1018.58 1018.72 1018.80 1018.82 1018.77 1018.65 1018.47
1010.47 1011.10 1011.72 1012.25 1012.65 1012.91 1013.09 1013.22 1013.38 1013.61 1013.93 1014.32 1014.75 1015.19 1015.57 1015.89 1016.12 1016.27 1016.38 1016.46 1016.55 1016.67 1016.81 1016.98 1017.15 1017.31 1017.43 1017.50 1017.54 1017.54 1017.55 1017.56 1017.60 1017.68 1017.78 1017.91 1018.03 1018.14 1018.20 1018.23 1018.21 1018.14 1018.02
1010.03 1010.69 1011.35 1011.93 1012.37 1012.69 1012.91 1013.09 1013.27 1013.49 1013.78 1014.14 1014.52 1014.90 1015.24 1015.52 1015.72 1015.85 1015.94 1016.00 1016.07 1016.16 1016.28 1016.43 1016.58 1016.73 1016.85 1016.95 1017.01 1017.06 1017.10 1017.15 1017.20 1017.28 1017.36 1017.45 1017.54 1017.60 1017.64 1017.65 1017.62 1017.58 1017.50
1009.66 1010.29 1010.93 1011.50 1011.96 1012.31 1012.58 1012.80 1013.02 1013.27 1013.56 1013.90 1014.25 1014.59 1014.90 1015.14 1015.31 1015.42 1015.49 1015.54 1015.59 1015.66 1015.75 1015.88 1016.01 1016.16 1016.29 1016.41 1016.51 1016.61 1016.69 1016.77 1016.85 1016.93 1017.00 1017.07 1017.11 1017.13 1017.12 1017.09 1017.05 1017.00 1016.94
1009.35 1009.89 1010.44 1010.95 1011.39 1011.75 1012.04 1012.30 1012.57 1012.85 1013.17 1013.51 1013.86 1014.19 1014.47 1014.70 1014.86 1014.96 1015.02 1015.07 1015.11 1015.17 1015.26 1015.37 1015.50 1015.64 1015.78 1015.92 1016.05 1016.17 1016.29 1016.40 1016.51 1016.60 1016.67 1016.71 1016.72 1016.69 1016.64 1016.57 1016.49 1016.41 1016.35
1009.15 1009.53 1009.94 1010.34 1010.70 1011.01 1011.31 1011.59 1011.89 1012.22 1012.57 1012.93 1013.29 1013.62 1013.91 1014.14 1014.31 1014.42 1014.51 1014.57 1014.64 1014.71 1014.80 1014.92 1015.04 1015.18 1015.32 1015.46 1015.60 1015.74 1015.87 1016.01 1016.12 1016.22 1016.29 1016.32 1016.30 1016.24 1016.15 1016.03 1015.91 1015.80 1015.72
1009.08 1009.26 1009.48 1009.72 1009.96 1010.20 1010.46 1010.74 1011.05 1011.40 1011.77 1012.16 1012.53 1012.88 1013.18 1013.43 1013.63 1013.79 1013.92 1014.03 1014.14 1014.25 1014.37 1014.49 1014.61 1014.74 1014.86 1014.99 1015.12 1015.25 1015.38 1015.51 1015.64 1015.74 1015.81 1015.84 1015.81 1015.73 1015.60 1015.46 1015.30 1015.16 1015.05
1009.16 1009.13 1009.14 1009.20 1009.29 1009.43 1009.62 1009.86 1010.16 1010.50 1010.87 1011.26 1011.64 1012.00 1012.32 1012.60 1012.85 1013.06 1013.25 1013.43 1013.60 1013.75 1013.90 1014.04 1014.16 1014.27 1014.37 1014.46 1014.55 1014.65 1014.76 1014.88 1015.00 1015.11 1015.18 1015.22 1015.19 1015.11 1014.98 1014.82 1014.64 1014.48 1014.36
1009.39 1009.17 1009.00 1008.89 1008.84 1008.86 1008.95 1009.13 1009.37 1009.67 1010.01 1010.37 1010.74 1011.09 1011.42 1011.72 1012.01 1012.27 1012.53 1012.77 1012.99 1013.20 1013.38 1013.52 1013.63 1013.71 1013.77 1013.81 1013.85 1013.91 1013.98 1014.08 1014.19 1014.30 1014.40 1014.45 1014.45 1014.40 1014.29 1014.13 1013.96 1013.79 1013.65
1009.76 1009.41 1009.10 1008.85 1008.68 1008.59 1008.60 1008.68 1008.85 1009.08 1009.35 1009.65 1009.96 1010.28 1010.59 1010.89 1011.20 1011.49 1011.79 1012.07 1012.33 1012.57 1012.76 1012.90 1012.99 1013.03 1013.04 1013.03 1013.01 1013.02 1013.06 1013.14 1013.24 1013.37 1013.49 1013.58 1013.63 1013.62 1013.55 1013.42 1013.27 1013.11 1012.97
1010.23 1009.82 1009.45 1009.13 1008.88 1008.71 1008.62 1008.62 1008.69 1008.83 1009.01 1009.22 1009.45 1009.69 1009.95 1010.22 1010.51 1010.80 1011.10 1011.39 1011.66 1011.89 1012.07 1012.19 1012.24 1012.23 1012.18 1012.11 1012.05 1012.02 1012.03 1012.10 1012.21 1012.36 1012.52 1012.66 1012.77 1012.82 1012.81 1012.73 1012.62 1012.48 1012.35
1010.78 1010.39 1010.02 1009.69 1009.41 1009.19 1009.04 1008.96 1008.94 1008.97 1009.04 1009.14 1009.27 1009.42 1009.60 1009.80 1010.03 1010.28 1010.53 1010.79 1011.02 1011.21 1011.34 1011.41 1011.40 1011.34 1011.24 1011.13 1011.03 1010.97 1010.97 1011.05 1011.18 1011.37 1011.57 1011.78 1011.95 1012.06 1012.11 1012.09 1012.01 1011.90 1011.78
1011.36 1011.06 1010.75 1010.46 1010.19 1009.97 1009.78 1009.63 1009.53 1009.46 1009.43 1009.42 1009.43 1009.48 1009.55 1009.66 1009.80 1009.96 1010.13 1010.30 1010.45 1010.56 1010.61 1010.60 1010.53 1010.41 1010.27 1010.12 1010.01 1009.95 1009.96 1010.05 1010.22 1010.45 1010.71 1010.96 1011.19 1011.36 1011.46 1011.48 1011.44 1011.36 1011.25
1011.95 1011.76 1011.55 1011.33 1011.11 1010.89 1010.69 1010.51 1010.34 1010.20 1010.07 1009.96 1009.87 1009.81 1009.78 1009.78 1009.80 1009.85 1009.91 1009.96 1009.99 1009.98 1009.94 1009.83 1009.69 1009.51 1009.33 1009.17 1009.05 1009.00 1009.04 1009.17 1009.38 1009.64 1009.94 1010.24 1010.50 1010.71 1010.84 1010.89 1010.87 1010.80 1010.70
1012.52 1012.45 1012.33 1012.18 1012.01 1011.82 1011.62 1011.41 1011.21 1011.01 1010.81 1010.63 1010.46 1010.31 1010.19 1010.08 1009.99 1009.91 1009.83 1009.74 1009.64 1009.50 1009.32 1009.12 1008.90 1008.67 1008.45 1008.28 1008.18 1008.16 1008.23 1008.40 1008.64 1008.94 1009.26 1009.58 1009.86 1010.07 1010.21 1010.27 1010.25 1010.18 1010.07
1013.03 1013.04 1012.99 1012.89 1012.76 1012.59 1012.39 1012.18 1011.96 1011.73 1011.50 1011.27 1011.06 1010.85 1010.64 1010.45 1010.25 1010.05 1009.84 1009.61 1009.35 1009.08 1008.78 1008.47 1008.16 1007.88 1007.65 1007.48 1007.39 1007.40 1007.51 1007.71 1007.98 1008.29 1008.62 1008.93 1009.20 1009.40 1009.52 1009.56 1009.53 1009.44 1009.32
1013.45 1013.48 1013.45 1013.38 1013.25 1013.09 1012.89 1012.68 1012.45 1012.22 1011.98 1011.75 1011.52 1011.28 1011.03 1010.77 1010.49 1010.19 1009.85 1009.49 1009.09 1008.68 1008.26 1007.85 1007.46 1007.13 1006.88 1006.71 1006.64 1006.67 1006.81 1007.03 1007.32 1007.63 1007.94 1008.23 1008.47 1008.63 1008.72 1008.73 1008.67 1008.57 1008.44
Thickness
5730 5732 5734 5735 5734 5733 5732 5732 5731 5730 5730 5727 5724 5721 5719 5718 5716 5716 5715 5714 5713 5711 5709 5706 5705 5704 5702 5700 5700 5700 5698 5698 5699 5698 5698 5702 5705 5707 5709 5711 5712 5714 5715
5725 5726 5729 5730 5730 5730 5731 5731 5730 5729 5729 5728 5725 5723 5721 5718 5716 5714 5713 5712 5710 5708 5706 5704 5701 5700 5698 5696 5695 5694 5692 5692 5693 5690 5687 5686 5691 5698 5703 5705 5706 5708 5710
5724 5724 5726 5727 5729 5731 5732 5734 5731 5730 5730 5729 5725 5723 5719 5716 5713 5710 5710 5710 5708 5706 5704 5702 5699 5697 5695 5692 5691 5690 5688 5685 5686 5686 5682 5678 5676 5682 5692 5696 5698 5700 5702
5730 5729 5729 5729 5731 5734 5735 5735 5732 5731 5730 5728 5725 5720 5716 5712 5711 5710 5708 5708 5707 5705 5703 5700 5697 5695 5692 5690 5688 5686 5684 5682 5679 5680 5680 5678 5677 5674 5675 5684 5689 5692 5694
5736 5734 5735 5736 5737 5738 5737 5736 5733 5731 5730 5728 5725 5721 5716 5713 5711 5710 5707 5706 5705 5703 5701 5698 5695 5693 5690 5688 5686 5684 5681 5679 5676 5675 5674 5674 5672 5671 5668 5668 5674 5680 5685
5743 5741 5742 5741 5740 5740 5739 5737 5733 5731 5730 5728 5725 5721 5717 5714 5710 5708 5706 5704 5702 5701 5699 5696 5693 5691 5688 5685 5683 5681 5679 5676 5674 5672 5670 5668 5666 5664 5663 5661 5662 5666 5673
5746 5744 5743 5742 5742 5741 5741 5739 5735 5732 5731 5729 5726 5723 5719 5715 5711 5708 5705 5703 5700 5698 5697 5695 5692 5689 5686 5684 5681 5678 5675 5673 5670 5668 5666 5664 5662 5661 5659 5656 5655 5657 5663
5751 5750 5750 5749 5747 5746 5745 5741 5737 5734 5732 5730 5727 5724 5720 5716 5712 5709 5706 5703 5700 5699 5697 5694 5691 5688 5685 5682 5678 5675 5672 5670 5667 5665 5663 5660 5659 5657 5655 5652 5650 5648 5650
5757 5757 5756 5754 5752 5750 5748 5745 5740 5736 5734 5731 5728 5724 5720 5717 5713 5710 5707 5704 5701 5699 5696 5693 5689 5686 5683 5680 5676 5672 5669 5666 5663 5661 5658 5655 5654 5653 5651 5648 5646 5642 5639
5761 5761 5759 5758 5756 5755 5751 5748 5744 5740 5736 5733 5729 5725 5721 5718 5714 5710 5706 5703 5701 5698 5695 5691 5688 5684 5681 5677 5673 5669 5666 5663 5660 5657 5654 5651 5649 5647 5645 5643 5640 5638 5635
5766 5765 5763 5762 5759 5756 5752 5748 5744 5740 5736 5733 5729 5725 5721 5718 5714 5709 5706 5703 5700 5697 5693 5690 5686 5682 5679 5675 5671 5666 5663 5659 5656 5653 5649 5647 5645 5641 5639 5636 5633 5631 5629
5770 5768 5765 5761 5757 5754 5751 5748 5745 5741 5738 5734 5730 5725 5721 5717 5712 5709 5706 5702 5699 5696 5692 5688 5684 5680 5677 5673 5668 5664 5661 5656 5652 5648 5645 5642 5639 5635 5632 5629 5626 5624 5622
5767 5765 5762 5759 5757 5754 5751 5748 5746 5743 5739 5734 5729 5724 5720 5716 5712 5709 5705 5702 5698 5694 5690 5686 5682 5678 5675 5671 5666 5662 5658 5653 5649 5645 5640 5637 5633 5629 5625 5622 5619 5616 5616
5766 5762 5759 5757 5756 5754 5751 5748 5745 5743 5739 5734 5728 5723 5720 5716 5712 5708 5705 5701 5697 5692 5688 5684 5680 5676 5672 5668 5663 5659 5654 5649 5645 5641 5636 5632 5627 5623 5619 5616 5612 5609 5606
5762 5761 5758 5755 5753 5751 5750 5748 5746 5743 5739 5733 5728 5724 5721 5716 5712 5707 5703 5699 5695 5691 5686 5682 5677 5673 5669 5665 5660 5655 5650 5644 5640 5635 5631 5627 5623 5619 5615 5611 5607 5603 5599
5762 5761 5758 5755 5752 5751 5749 5747 5744 5742 5738 5733 5729 5725 5719 5714 5710 5705 5701 5696 5691 5687 5682 5678 5673 5669 5666 5662 5657 5651 5646 5640 5634 5629 5625 5621 5617 5614 5610 5607 5604 5599 5594
5760 5758 5757 5756 5755 5754 5752 5747 5746 5742 5736 5731 5728 5723 5718 5713 5709 5704 5698 5692 5688 5683 5678 5674 5669 5665 5661 5657 5652 5647 5641 5634 5629 5624 5618 5615 5612 5608 5603 5600 5597 5594 5592
5757 5756 5756 5755 5754 5753 5750 5749 5745 5739 5733 5729 5725 5721 5716 5711 5706 5700 5695 5690 5684 5679 5674 5669 5665 5660 5656 5652 5647 5642 5636 5629 5624 5619 5614 5608 5604 5600 5596 5592 5589 5587 5585
5748 5749 5751 5751 5750 5748 5747 5743 5737 5733 5728 5725 5722 5719 5714 5708 5702 5696 5691 5686 5680 5674 5670 5666 5660 5654 5651 5647 5642 5636 5629 5623 5618 5614 5608 5603 5598 5595 5590 5585 5582 5580 5578
5739 5740 5741 5741 5738 5739 5740 5734 5729 5724 5722 5721 5719 5715 5710 5704 5698 5693 5688 5682 5675 5670 5665 5660 5655 5650 5646 5642 5636 5630 5623 5617 5613 5607 5602 5598 5593 5589 5584 5579 5576 5573 5573
5725 5726 5726 5724 5723 5726 5725 5719 5716 5713 5714 5714 5711 5706 5701 5696 5692 5687 5682 5675 5669 5663 5657 5653 5649 5645 5641 5637 5631 5625 5617 5612 5607 5601 5596 5592 5588 5584 5579 5575 5571 5569 5568
5710 5710 5709 5707 5708 5710 5708 5703 5699 5701 5702 5700 5697 5694 5690 5687 5683 5677 5672 5667 5660 5654 5649 5645 5641 5639 5635 5631 5626 5620 5614 5609 5602 5597 5593 5588 5582 5578 5574 5570 5566 5564 5560
5696 5696 5695 5693 5692 5692 5690 5686 5684 5686 5686 5683 5680 5678 5675 5672 5669 5665 5661 5655 5650 5645 5642 5637 5634 5632 5629 5625 5620 5615 5609 5603 5597 5593 5588 5582 5576 5571 5566 5563 5560 5556 5552
5683 5682 5681 5678 5675 5675 5673 5670 5669 5669 5668 5665 5662 5660 5658 5656 5653 5651 5647 5643 5640 5636 5633 5629 5627 5625 5621 5617 5613 5608 5604 5598 5590 5585 5580 5574 5568 5563 5560 5557 5554 5551 5548
5670 5668 5665 5662 5659 5658 5656 5655 5654 5653 5650 5647 5644 5643 5641 5639 5638 5636 5634 5632 5631 5628 5625 5623 5620 5616 5613 5613 5608 5601 5596 5590 5584 5576 5569 5563 5558 5555 5553 5551 5549 5547 5544
5656 5653 5650 5647 5644 5643 5641 5640 5639 5637 5633 5630 5628 5626 5625 5624 5622 5621 5622 5622 5620 5619 5616 5613 5610 5609 5607 5605 5599 5592 5587 5581 5574 5565 5560 5557 5553 5551 5549 5547 5546 5544 5542